Location: Emory University Observatory
(33.7903°N, 84.3267°W)
Time: 00:19:34
(UTC-04:00)

Vanguard 1 Rocket - Visible Passes

Search period start: 18 August 2018 00:00
Search period end: 28 August 2018 00:00
Orbit: 650 x 4226 km, 34.3° (Epoch: 16 August)

Date Brightness Start Highest point End Pass type
(mag) Time Alt. Az. Time Alt. Az. Time Alt. Az.
18 Aug 10.1 01:16:24 46° ESE 01:16:24 46° ESE 01:32:58 10° ENE visible
18 Aug 10.0 03:33:39 47° WSW 03:41:47 88° SSE 04:08:25 10° E visible
18 Aug 10.7 05:53:21 10° W 06:15:59 87° SSW 06:41:39 10° ESE visible
19 Aug 10.8 00:08:52 22° E 00:08:52 22° E 00:16:04 10° ENE visible
19 Aug 9.6 02:26:07 75° SSW 02:27:28 78° SSE 02:52:11 10° ENE visible
19 Aug 10.4 04:43:22 20° W 05:00:03 89° N 05:26:57 10° E visible
20 Aug 9.9 01:18:37 52° ESE 01:18:37 52° ESE 01:35:42 10° ENE visible
20 Aug 10.1 03:35:52 43° W 03:44:40 90° N 04:11:15 10° E visible
20 Aug 10.7 05:56:24 10° W 06:18:41 83° SSW 06:44:26 10° ESE visible
21 Aug 10.6 00:11:08 26° E 00:11:08 26° E 00:19:08 10° ENE visible
21 Aug 9.5 02:28:24 76° SW 02:30:16 84° SSE 02:54:55 10° E visible
21 Aug 10.4 04:45:39 17° W 05:02:55 90° S 05:29:49 10° ESE visible
22 Aug 9.8 01:20:58 57° E 01:20:58 57° E 01:38:24 10° ENE visible
22 Aug 10.1 03:38:13 39° W 03:47:37 88° N 04:14:06 10° E visible
22 Aug 10.6 05:59:26 10° WNW 06:21:16 78° SSW 06:47:03 10° ESE visible
23 Aug 10.5 00:13:34 28° E 00:13:34 28° E 00:22:00 10° ENE visible
23 Aug 9.5 02:30:50 74° WSW 02:33:11 88° S 02:57:41 10° E visible
23 Aug 10.4 04:48:06 14° W 05:05:43 87° SSW 05:32:35 10° ESE visible
24 Aug 9.7 01:23:30 61° E 01:23:30 61° E 01:41:05 10° ENE visible
24 Aug 10.0 03:40:46 36° W 03:50:34 89° N 04:16:55 10° E visible
24 Aug 10.6 06:02:29 10° WNW 06:23:46 72° SSW 06:49:28 10° SE visible
25 Aug 10.4 00:16:15 30° E 00:16:15 30° E 00:24:47 10° ENE visible
25 Aug 9.5 02:33:32 71° W 02:36:11 89° N 03:00:28 10° E visible
25 Aug 10.3 04:50:49 13° W 05:08:28 82° SSW 05:35:13 10° ESE visible
25 Aug 10.2 23:09:04 10° ENE 23:09:04 10° ENE 22:48:19 - SSW visible
26 Aug 9.6 01:26:22 63° E 01:26:22 63° E 01:43:49 10° E visible
26 Aug 10.0 03:43:40 35° W 03:53:30 89° S 04:19:41 10° ESE visible
26 Aug 10.6 06:05:33 10° WNW 06:26:11 64° SSW 06:51:39 10° SE visible
26 Aug 9.5 21:41:07 10° S 21:42:01 13° SSE 21:42:01 13° SSE visible
27 Aug 10.4 00:19:19 30° E 00:19:19 30° E 00:27:32 10° ENE visible
27 Aug 9.5 02:36:37 71° W 02:39:12 88° N 03:03:16 10° E visible
27 Aug 10.3 04:53:55 13° WNW 05:11:09 76° SSW 05:37:39 10° ESE visible
27 Aug 9.6 22:52:02 10° SW 23:12:23 - ENE 22:53:03 16° SSW visible
